N2DJ Weather Reports


Display with metric or nautical units.
time (UTC)temp
F
wind
direction
speed
MPH
gust
MPH
rain 1hr
in
rain 24hr
in
rain mn
in
humidity
%
barometer
mb
20260906090049 59 355 0.0 0.0 0.00 0.00 0.00 98 1017.0
20260906084553 59 355 0.0 0.0 0.00 0.00 0.00 98 1016.8
20260906083046 59 355 0.0 0.0 0.00 0.00 0.00 98 1016.6
20260906081545 60 355 0.0 0.0 0.00 0.00 0.00 98 1016.4
20260906080052 60 355 0.0 0.0 0.00 0.00 0.00 98 1016.5
20260906074542 61 355 0.0 0.0 0.00 0.00 0.00 98 1016.5
20260906073038 61 355 0.0 0.0 0.00 0.00 0.00 98 1016.4
20260906071536 62 355 0.0 0.0 0.00 0.00 0.00 98 1016.3
20260906070039 62 355 0.0 0.0 0.00 0.00 0.00 98 1016.4
20260906064536 62 355 0.0 0.0 0.00 0.00 0.00 98 1016.5
20260906063034 62 355 0.0 0.0 0.00 0.00 0.00 98 1016.6
20260906061538 62 355 0.0 0.0 0.00 0.00 0.00 98 1016.6
20260906060036 62 355 0.0 0.0 0.00 0.00 0.00 98 1016.5
20260906054532 62 355 0.0 0.0 0.00 0.00 0.00 98 1016.6
20260906053031 62 355 0.0 0.0 0.00 0.00 0.00 98 1016.6
20260906051530 62 355 0.0 1.0 0.00 0.00 0.00 97 1016.4
20260906050029 63 355 0.0 0.0 0.00 0.00 0.00 97 1016.3
20260906044528 63 355 0.0 1.0 0.00 0.00 0.00 97 1016.2
20260906043027 62 355 0.0 0.0 0.00 0.00 0.00 97 1016.3
20260906041535 62 355 0.0 0.0 0.00 0.00 0.00 97 1016.2
20260906040024 62 355 0.0 0.0 0.00 0.00 0.00 97 1016.2
20260906034527 62 355 0.0 0.0 0.00 0.00 0.00 97 1016.1
20260906033022 62 355 0.0 0.0 0.00 0.00 0.00 97 1016.0
20260906031522 62 355 0.0 0.0 0.00 0.00 0.00 97 1015.9
20260906030022 62 355 0.0 0.0 0.00 0.00 0.00 96 1015.8
20260906024520 62 355 0.0 0.0 0.00 0.00 0.00 96 1015.8
20260906023020 61 355 0.0 0.0 0.00 0.00 0.00 95 1015.8
20260906021520 62 355 0.0 0.0 0.00 0.00 0.00 95 1015.8
20260906020019 62 355 0.0 0.0 0.00 0.00 0.00 95 1015.8
20260906014522 62 355 0.0 0.0 0.00 0.00 0.00 94 1015.6
20260906013017 62 355 0.0 0.0 0.00 0.00 0.00 94 1015.5
20260906011517 63 355 0.0 0.0 0.00 0.00 0.00 93 1015.4
20260906010017 63 355 0.0 0.0 0.00 0.00 0.00 92 1015.3
20260906004516 64 355 0.0 0.0 0.00 0.00 0.00 92 1015.1
20260906003015 64 355 0.0 0.0 0.00 0.00 0.00 91 1015.3
20260906001515 64 355 0.0 0.0 0.00 0.00 0.00 90 1015.2
20260906000015 65 355 0.0 0.0 0.00 0.00 0.00 88 1014.8
20260905234514 65 355 0.0 0.0 0.00 0.00 0.00 85 1015.0
20260905233012 67 355 0.0 0.0 0.00 0.00 0.00 83 1015.1
20260905231513 69 355 0.0 0.0 0.00 0.00 0.00 78 1015.1
20260905230012 71 355 0.0 3.0 0.00 0.00 0.00 72 1015.1
20260905224518 72 355 0.0 3.0 0.00 0.00 0.00 68 1015.1
20260905223011 73 5 1.0 5.0 0.00 0.00 0.00 66 1015.2
20260905221527 74 13 1.0 4.0 0.00 0.00 0.00 64 1015.2
20260905220010 75 53 2.0 5.0 0.00 0.00 0.00 63 1015.0
20260905214510 75 9 3.0 6.0 0.00 0.00 0.00 62 1014.8
20260905213007 74 281 1.0 8.0 0.00 0.00 0.00 62 1014.7
20260905211506 74 77 2.0 8.0 0.00 0.00 0.00 62 1014.8
20260905210007 74 15 3.0 6.0 0.00 0.00 0.00 64 1014.8
20260905204504 75 342 1.0 6.0 0.00 0.00 0.00 63 1014.7
20260905203004 75 45 3.0 9.0 0.00 0.00 0.00 64 1014.7
20260905201502 74 23 4.0 10.0 0.00 0.00 0.00 66 1014.7
20260905200002 74 5 2.0 9.0 0.00 0.00 0.00 66 1014.8
20260905194501 73 28 2.0 8.0 0.00 0.00 0.00 67 1014.9
20260905193006 74 24 3.0 7.0 0.00 0.00 0.00 65 1014.9
20260905191605 74 323 2.0 8.0 0.00 0.00 0.00 68 1015.0
20260905190127 74 346 3.0 8.0 0.00 0.00 0.00 67 1015.1
20260905184618 72 13 1.0 9.0 0.00 0.00 0.00 68 1015.2
20260905183055 74 336 2.0 9.0 0.00 0.00 0.00 69 1015.1
20260905181555 73 31 2.0 11.0 0.00 0.00 0.00 70 1015.0
20260905180056 73 24 2.0 8.0 0.00 0.00 0.00 69 1015.0
20260905174557 72 48 2.0 5.0 0.00 0.00 0.00 71 1015.0
20260905173052 73 331 2.0 6.0 0.00 0.00 0.00 72 1015.1
20260905171552 73 323 2.0 6.0 0.00 0.00 0.00 69 1015.1
20260905170055 73 360 2.0 10.0 0.00 0.00 0.00 68 1015.0
20260905164550 73 345 3.0 11.0 0.00 0.00 0.00 67 1015.1
20260905163047 72 350 4.0 10.0 0.00 0.00 0.00 69 1015.1
20260905161546 72 299 3.0 10.0 0.00 0.00 0.00 71 1015.1
20260905160044 72 338 2.0 9.0 0.00 0.00 0.00 73 1015.2
20260905154542 72 5 3.0 9.0 0.00 0.00 0.00 74 1015.1
20260905153039 71 355 3.0 12.0 0.00 0.00 0.00 77 1015.2
20260905151537 71 351 3.0 8.0 0.00 0.00 0.00 77 1015.3
20260905150036 72 340 3.0 8.0 0.00 0.00 0.00 77 1015.4
20260905144540 71 46 3.0 10.0 0.00 0.00 0.00 78 1015.4
20260905143032 71 360 3.0 8.0 0.00 0.00 0.00 78 1015.2
20260905141530 70 360 2.0 8.0 0.00 0.00 0.00 78 1015.2
20260905140025 70 345 3.0 10.0 0.00 0.00 0.00 80 1015.3
20260905134520 69 5 0.0 6.0 0.00 0.00 0.00 83 1015.3
20260905133019 68 318 1.0 5.0 0.00 0.00 0.00 86 1015.5
20260905131530 67 303 2.0 6.0 0.00 0.00 0.00 93 1015.4
20260905130010 65 59 3.0 8.0 0.00 0.00 0.00 97 1015.4
20260905124505 64 43 1.0 4.0 0.00 0.00 0.00 99 1015.5
20260905123001 64 313 0.0 1.0 0.00 0.00 0.00 99 1015.6
20260905121558 63 331 0.0 2.0 0.00 0.00 0.00 99 1015.6
20260905120055 61 332 0.0 1.0 0.00 0.00 0.00 99 1015.5
20260905114552 60 333 0.0 0.0 0.00 0.00 0.00 99 1015.4
20260905113055 58 333 0.0 0.0 0.00 0.00 0.00 99 1015.2
20260905111556 57 333 0.0 0.0 0.00 0.00 0.00 99 1014.9
20260905110043 56 333 0.0 0.0 0.00 0.00 0.00 98 1014.7
20260905104542 56 333 0.0 0.0 0.00 0.00 0.00 98 1014.7
20260905103042 57 333 0.0 1.0 0.00 0.00 0.00 98 1014.7
20260905101542 57 333 0.0 0.0 0.00 0.00 0.00 98 1014.8
20260905100039 57 333 0.0 0.0 0.00 0.00 0.00 98 1014.6
20260905094538 57 333 0.0 0.0 0.00 0.00 0.00 98 1014.5
20260905093037 58 333 0.0 0.0 0.00 0.00 0.00 98 1014.5
20260905091538 58 333 0.0 0.0 0.00 0.00 0.00 98 1014.4